Погода в Мукачеве

Украина / Закарпатская область     48˚26′31″N   22˚43′05″E
темп.,
°C
ветер,
м/с
пор.,
м/с
влажн.,
%
обл.,
%
осадки,
мм/ч
давл.,
гПа
погр.,
м
6 декабря, вс
вс623:00+6˚в22820 0.0 101823
02:00+6˚в23832 0.0 101826
05:00+6˚всв22820 0.0 101822
08:00+5˚всв22829 0.0 101822
11:00+9˚в116952 0.0 101775
14:00+11˚ююв126568 0.0 1016188
17:00+7˚вюв118067 0.0 101522
20:00+6˚всв128261 0.0 101522
7 декабря, пн
пн723:00+5˚в228327 0.0 101523
02:00+4˚всв228429 0.0 101422
05:00+4˚всв22810 0.0 101322
08:00+4˚всв22800 0.0 101323
11:00+7˚в11669 0.0 101372
14:00+9˚юз11629 0.0 1012252
17:00+5˚ссз117958 0.0 101322
20:00+4˚ссв228249 0.0 101322
8 декабря, вт
вт823:00+3˚св228641 0.0 101424
02:00+2˚всв118848 0.0 101422
05:00+2˚вюв118688 0.0 101422
08:00+2˚юв118894 0.2 101645
11:00+2˚ююв1195100 0.4 1016117
14:00+3˚ююв0195100 0.6 101694
17:00+3˚ссв1192100 0.1 101629
20:00+3˚всв1192100 0.1 101722
9 декабря, ср
ср923:00+2˚всв229188 0.0 101722
02:00+2˚св238988 0.0 101728
05:00+2˚св228746 0.0 101726
08:00+2˚св238523 0.0 101627
11:00+5˚св11700 0.0 101684
14:00+8˚св12610 0.0 1014290
17:00+4˚св22780 0.0 101324
20:00+3˚св237733 0.0 101344
10 декабря, чт
чт1023:00+3˚всв2274100 0.1 101240
02:00+4˚всв2281100 1.1 101164
05:00+4˚всв2283100 0.4 101036
08:00+5˚св2293100 3.1 101159
11:00+7˚св228496 0.1 101299
14:00+10˚св237455 0.1 1011227
17:00+7˚ссв228567 0.0 101124
20:00+6˚св338383 0.0 101142